Terug naar catalogus

STARLINK-3419

ActiefCommunicatieVLEO
NORAD 51463·PAYLOAD·🇺🇸 United States

Gelanceerd Feb 3, 2022 vanaf Cape Canaveral Space Force Station

Loading…

Volgende Passages (komende 24 uur)

TLE

VersSource: CelesTrak SupGP

Epoch: Sep 15, 2026, 02:27 UTC

1 51463C 22010H   26258.10256944  .00054639  00000+0  17572-2 0  2586
2 51463  53.1568 134.3505 0001104  80.5338  88.3910 15.31672103    12

Volg STARLINK-3419 in realtime met AllMySat

Download on the App Store